User: anonymous   Login
Location: Champignolles
(47.0543°N, 4.5663°E)
Time: 04:45:12
(UTC+00:00)
Language:

Cosmos 1933 - Orbit

View from above orbital plane
View from above orbital plane
View from above satellite
View from above satellite

Ground track
Ground track

The orbit data is extracted from the following two-line orbital elements,

1 18958U 88020A   21055.78318417  .00000824  00000-0  57762-4 0  9996
2 18958  82.5269 241.8984 0012044  20.3184 339.8518 15.03858031773008
Epoch (UTC): 24 February 2021 18:47:47
Eccentricity: 0.0012044
inclination: 82.5269°
perigee height: 546 km
apogee height: 563 km
right ascension of ascending node: 241.8984°
argument of perigee: 20.3184°
revolutions per day: 15.03858031
mean anomaly at epoch: 339.8518°
orbit number at epoch: 77300

The dashed part of the orbit path shows where the satellite is in the earth's shadow,  

DLR